User: anonymous   Login
Location: Siloam Springs
(36.1881°N, 94.5403°W)
Time: 18:02:08
(UTC-05:00)
Language:

NOAA 19 - Orbit

View from above orbital plane
View from above orbital plane
View from above satellite
View from above satellite

Ground track
Ground track

The orbit data is extracted from the following two-line orbital elements,

1 33591U 09005A   24148.48307785  .00000237  00000-0  15149-3 0  9991
2 33591  99.0481 204.0620 0013541 355.2847   4.8195 14.13013175788709
Epoch (UTC): 27 May 2024 11:35:37
Eccentricity: 0.0013541
inclination: 99.0481°
perigee height: 839 km
apogee height: 859 km
right ascension of ascending node: 204.0620°
argument of perigee: 355.2847°
revolutions per day: 14.13013175
mean anomaly at epoch: 4.8195°
orbit number at epoch: 78870

The dashed part of the orbit path shows where the satellite is in the earth's shadow,  

DLR